Location: Battersea Observatory
(44.4318°N, 76.3841°W)
Time: 06:43:35
(UTC-05:00)

Transit 2A Rocket - All Passes

Search period start: 19 January 2022 00:00
Search period end: 29 January 2022 00:00
Orbit: 584 x 918 km, 66.7° (Epoch: 18 January)

Date Brightness Start Highest point End Pass type
(mag) Time Alt. Az. Time Alt. Az. Time Alt. Az.
19 Jan - 02:51:39 10° N 02:54:38 14° NNE 02:57:32 10° ENE visible
19 Jan - 04:33:10 10° NNW 04:38:48 49° NE 04:43:55 10° SE visible
19 Jan - 06:16:23 10° NW 06:21:06 28° WSW 06:25:26 10° SSW visible
19 Jan - 19:08:52 10° SSE 19:13:50 28° ESE 19:18:53 10° NE visible
19 Jan - 20:50:10 10° SW 20:56:07 58° NW 21:02:11 10° NNE visible
19 Jan - 22:36:16 10° WNW 22:40:05 17° NNW 22:43:52 10° N night (unlit)
20 Jan - 02:09:50 10° N 02:11:14 11° NNE 02:12:36 10° NE night (unlit)
20 Jan - 03:50:37 10° NNW 03:55:50 33° NE 04:00:38 10° ESE visible
20 Jan - 05:33:14 10° NW 05:38:39 47° WSW 05:43:35 10° S visible
20 Jan - 18:27:51 10° SE 18:31:30 17° ESE 18:35:12 10° ENE visible
20 Jan - 20:07:17 10° SSW 20:13:20 88° WNW 20:19:31 10° NNE visible
20 Jan - 21:52:07 10° W 21:56:50 22° NW 22:01:32 10° NNE visible
21 Jan - 03:08:10 10° NNW 03:12:44 23° NE 03:17:00 10° E visible
21 Jan - 04:50:21 10° NW 04:56:05 78° WSW 05:01:15 10° SSE visible
21 Jan - 06:36:11 10° W 06:37:32 11° W 06:38:51 10° WSW visible
21 Jan - 19:24:47 10° SSW 19:30:40 60° ESE 19:36:43 10° NE visible
21 Jan - 21:08:21 10° WSW 21:13:43 31° NW 21:19:06 10° NNE visible
21 Jan - 22:56:56 10° NW 22:58:23 11° NNW 22:59:48 10° N night (unlit)
22 Jan - 02:25:50 10° N 02:29:30 17° NNE 02:32:59 10° ENE night (unlit)
22 Jan - 04:07:37 10° NNW 04:13:21 65° NE 04:18:31 10° SE visible
22 Jan - 05:51:25 10° WNW 05:55:18 20° WSW 05:58:58 10° SSW visible
22 Jan - 18:42:41 10° S 18:48:08 37° ESE 18:53:43 10° NE visible
22 Jan - 20:24:55 10° WSW 20:30:43 45° NW 20:36:35 10° NNE visible
22 Jan - 22:11:53 10° WNW 22:14:57 14° NNW 22:18:00 10° N visible
23 Jan - 01:43:42 10° N 01:46:09 13° NNE 01:48:31 10° NE night (unlit)
23 Jan - 03:25:01 10° NNW 03:30:28 42° NE 03:35:27 10° ESE visible
23 Jan - 05:07:59 10° NW 05:12:57 33° WSW 05:17:31 10° S visible
23 Jan - 18:01:07 10° SSE 18:05:43 23° ESE 18:10:23 10° ENE visible
23 Jan - 19:41:49 10° SW 19:47:52 68° NW 19:53:59 10° NNE visible
23 Jan - 21:27:28 10° WNW 21:31:38 19° NW 21:35:46 10° N visible
24 Jan - 02:42:30 10° NNW 02:47:27 28° NE 02:52:03 10° ESE night (unlit)
24 Jan - 04:24:56 10° NW 04:30:28 57° WSW 04:35:28 10° SSE visible
24 Jan - 17:20:33 10° SE 17:23:25 14° ESE 17:26:19 10° ENE daylight
24 Jan - 18:59:04 10° SSW 19:05:06 80° ESE 19:11:16 10° NE visible
24 Jan - 20:43:27 10° W 20:48:26 25° NW 20:53:24 10° NNE visible
25 Jan - 02:00:05 10° N 02:04:18 20° NE 02:08:16 10° E night (unlit)
25 Jan - 03:42:06 10° NNW 03:47:50 88° ENE 03:52:59 10° SSE night (unlit)
25 Jan - 05:26:53 10° WNW 05:29:28 14° WSW 05:31:57 10° SW night (unlit)
25 Jan - 18:16:41 10° S 18:22:29 50° ESE 18:28:24 10° NE visible
25 Jan - 19:59:48 10° WSW 20:05:22 36° NW 20:10:56 10° NNE visible
25 Jan - 21:47:44 10° NW 21:49:52 12° NNW 21:51:58 10° N visible
26 Jan - 01:17:49 10° N 01:21:01 15° NNE 01:24:06 10° ENE night (unlit)
26 Jan - 02:59:25 10° NNW 03:05:03 55° NE 03:10:08 10° SE night (unlit)
26 Jan - 04:42:52 10° NW 04:47:12 24° WSW 04:51:12 10° SSW night (unlit)
26 Jan - 17:34:46 10° S 17:40:00 31° ESE 17:45:18 10° NE visible
26 Jan - 19:16:29 10° SW 19:22:25 52° NW 19:28:23 10° NNE visible
26 Jan - 21:02:59 10° WNW 21:06:28 15° NNW 21:09:57 10° N visible
27 Jan - 00:35:53 10° N 00:37:38 11° NNE 00:39:22 10° NE night (unlit)
27 Jan - 02:16:52 10° NNW 02:22:07 36° NE 02:26:56 10° ESE night (unlit)
27 Jan - 03:59:36 10° NW 04:04:48 40° WSW 04:09:31 10° S night (unlit)
27 Jan - 16:53:29 10° SSE 16:57:37 19° ESE 17:01:48 10° ENE daylight
27 Jan - 18:33:31 10° SW 18:39:36 79° WNW 18:45:45 10° NNE visible
27 Jan - 20:18:43 10° W 20:23:12 21° NW 20:27:39 10° N visible
28 Jan - 01:34:23 10° NNW 01:39:02 25° NE 01:43:24 10° E night (unlit)
28 Jan - 03:16:39 10° NW 03:22:15 68° WSW 03:27:18 10° SSE night (unlit)
28 Jan - 16:13:47 10° ESE 16:15:21 11° E 16:16:56 10° E daylight
28 Jan - 17:50:53 10° SSW 17:56:54 68° ESE 18:02:59 10° NE visible
28 Jan - 19:34:50 10° W 19:40:03 28° NW 19:45:15 10° NNE visible
